Wind_Speed
34 34 32 29 26 27 26 25 24 22 17 15 15 16 17 18 18 17 17 14 11 9 10 10 9 9 8 7 5 3 0 1 1 2 2 2 2 2 3 5 5 3 2 3 4 4 3 3 4 5 5 6 6 6 6 6 6 7 7 7 7 6 5 5 4 4 3 2 1 2 2 3 4 4 4 4 5 6 6 7 7 7 8 8 9 9
34 31 28 28 28 29 29 29 28 25 19 17 18 18 18 19 20 20 18 16 12 9 11 12 9 8 8 6 4 3 3 1 0 1 2 2 2 2 1 2 3 2 1 1 2 3 3 3 4 5 6 6 7 7 7 6 6 7 7 7 7 7 6 6 5 4 4 3 2 2 2 3 3 4 4 5 6 7 7 8 8 8 9 9 9 10
32 27 26 29 32 34 34 33 30 27 22 19 20 20 19 20 22 22 21 19 16 12 12 14 13 9 8 6 4 3 3 3 2 1 2 3 3 3 2 1 0 1 2 2 2 2 2 2 3 4 5 6 7 7 7 7 7 7 8 8 7 7 7 6 6 6 5 5 5 5 4 5 5 6 6 6 7 8 9 9 9 10 10 11 11 11
27 23 27 33 36 37 37 34 32 30 24 20 21 21 19 20 22 22 21 19 16 13 12 14 16 13 8 6 4 3 3 4 5 4 2 3 4 4 3 3 2 3 4 5 5 5 4 3 3 3 4 5 6 7 7 7 7 8 8 8 8 7 8 7 7 7 7 7 7 7 7 7 8 8 8 8 9 10 10 11 11 12 12 13 13 13
27 23 30 37 38 39 38 35 34 31 25 20 20 21 20 19 21 22 20 18 16 15 15 14 16 14 9 6 4 1 3 5 7 7 5 5 5 5 5 5 4 4 5 7 7 7 7 6 5 4 3 4 5 6 7 7 8 8 8 9 9 9 9 9 9 10 9 9 9 9 9 10 10 10 9 10 10 11 12 13 14 14 15 16 16 16
29 28 34 39 40 39 39 37 35 31 25 21 21 22 21 19 22 24 22 23 22 21 18 14 15 15 10 8 6 0 3 5 8 8 7 6 5 7 7 6 6 6 6 8 8 8 9 9 7 6 5 4 5 6 7 8 8 9 9 9 10 10 10 11 11 12 12 11 11 11 11 11 11 11 12 12 13 13 14 15 16 17 18 18 19 20
30 31 37 41 42 41 40 39 36 33 28 23 22 22 22 20 22 23 23 24 24 20 16 15 17 17 14 12 9 4 5 3 6 6 7 6 4 6 7 7 7 7 8 9 9 10 10 9 9 9 8 7 7 7 8 9 10 11 11 11 11 12 12 13 13 14 14 13 13 13 13 14 14 14 14 15 16 17 17 18 19 20 20 21 21 22
32 34 39 42 44 43 42 40 36 34 29 23 21 23 22 21 21 22 22 22 20 17 18 19 20 20 18 13 9 7 6 2 5 6 6 5 3 4 5 5 6 7 8 9 10 10 10 10 10 10 9 9 9 9 10 11 11 12 13 13 13 14 15 15 16 16 16 16 16 16 16 17 17 18 18 19 19 20 20 21 21 22 22 23 23 23
34 35 39 42 45 44 41 38 37 36 30 21 22 25 24 23 24 25 25 24 21 21 24 23 20 22 20 16 11 10 8 3 3 4 4 3 4 6 6 6 6 7 8 9 10 11 11 12 12 11 10 9 10 11 13 13 13 14 15 15 16 16 17 17 18 18 19 19 20 20 20 20 21 21 22 22 22 23 24 24 24 24 24 25 25 25
38 39 41 44 46 44 39 38 39 38 30 22 25 30 29 28 29 30 30 28 27 28 28 24 20 22 20 19 15 12 8 6 4 4 4 3 5 7 7 7 6 6 7 8 10 11 13 14 13 12 11 10 11 13 14 14 15 16 17 18 17 18 18 19 19 19 20 22 22 23 23 24 24 24 25 25 25 25 25 26 26 26 26 25 25 26
43 43 46 48 47 45 42 42 42 40 32 26 30 35 34 33 33 34 34 32 33 34 30 24 19 21 22 21 18 12 11 10 7 9 7 2 6 8 9 9 6 5 5 6 8 9 12 15 14 12 12 12 13 13 15 15 16 18 19 19 19 19 20 20 21 21 22 24 24 25 26 26 26 26 27 27 26 25 25 26 26 26 26 25 26 26
49 48 49 50 48 48 48 47 46 44 37 32 34 38 39 38 37 37 37 37 39 37 30 22 19 23 21 18 16 12 12 10 8 11 10 4 5 6 9 9 6 5 5 5 7 7 10 13 13 12 12 13 14 14 15 16 17 18 19 20 20 20 21 22 22 22 23 24 24 25 25 26 26 26 27 26 25 24 24 25 25 25 25 25 25 26
51 51 51 51 50 51 52 50 50 48 42 38 40 41 43 42 41 41 40 39 41 36 28 23 22 26 17 13 14 13 12 11 10 12 11 7 5 5 9 10 6 6 8 8 8 8 9 10 11 12 12 13 13 14 16 17 18 19 19 19 19 20 21 21 21 21 22 22 23 23 24 24 25 25 25 24 23 23 23 24 24 25 25 25 25 26
51 52 52 53 52 52 53 53 52 52 47 43 43 44 46 45 44 45 43 41 40 35 30 26 27 30 17 9 11 13 12 11 8 9 9 7 6 7 9 12 8 7 9 9 10 10 9 9 10 11 12 13 14 16 18 19 20 20 21 20 20 20 20 20 20 20 21 22 21 22 22 23 23 24 24 24 23 23 23 23 24 25 25 26 26 27
53 53 51 51 52 52 53 53 52 51 48 44 43 45 47 47 46 45 43 41 40 36 33 32 34 35 19 7 7 11 12 12 11 12 12 11 11 10 13 15 10 9 10 9 10 10 9 8 9 11 12 13 15 17 19 21 22 22 22 22 21 20 20 19 19 20 21 21 21 21 21 22 23 23 24 24 25 25 24 24 24 25 26 27 27 27
55 54 50 51 53 51 51 53 52 52 50 46 46 48 49 49 46 44 42 41 40 38 37 37 38 37 27 18 16 15 15 16 15 15 14 13 12 12 15 16 12 10 10 9 9 8 8 8 9 10 11 12 13 14 16 19 21 22 22 21 20 20 19 18 18 20 21 21 20 20 21 22 23 23 23 24 25 26 26 25 25 26 27 27 27 28
55 53 50 52 55 52 53 54 53 54 52 49 50 51 51 48 46 45 44 43 42 42 42 41 40 37 33 29 24 20 20 18 17 16 14 13 13 13 15 15 15 13 11 11 10 8 9 10 10 12 12 13 13 13 14 16 19 21 21 20 19 18 17 17 18 19 20 20 21 21 22 22 23 23 23 24 26 27 26 26 27 28 28 28 28 28
53 52 50 53 55 54 55 54 53 55 55 54 52 50 50 50 49 48 48 47 46 46 45 44 41 39 36 32 27 22 19 17 16 15 13 12 12 13 14 16 16 14 12 13 13 12 12 12 12 13 13 14 14 14 14 14 17 19 19 18 17 17 16 17 19 19 19 20 21 22 23 24 24 25 25 27 28 28 28 27 27 28 29 29 28 29
50 50 51 53 55 55 56 56 55 55 58 58 54 52 53 54 52 50 50 50 49 49 48 46 43 41 39 34 29 24 19 15 14 12 11 12 13 12 14 17 18 16 15 14 13 14 14 13 14 15 15 15 14 14 13 13 14 15 17 18 18 18 18 19 19 19 20 21 23 24 25 26 27 28 29 29 30 30 30 29 28 29 29 29 30 30
46 49 50 51 54 55 56 59 58 56 59 61 59 57 58 57 54 52 50 50 50 50 49 47 47 46 41 36 31 26 21 17 16 16 16 16 16 15 15 18 17 15 15 14 14 15 14 13 14 15 16 16 16 15 13 11 11 12 14 16 17 18 18 18 19 19 21 22 24 26 27 28 29 29 30 31 31 32 32 31 29 29 30 30 31 30
40 47 50 50 51 54 56 58 56 55 59 62 62 62 61 59 56 54 53 52 51 51 51 50 50 48 42 36 31 26 22 20 18 18 18 18 18 18 17 17 15 14 15 15 16 16 14 12 13 14 15 15 16 16 14 12 11 12 13 13 14 16 16 17 18 20 22 24 26 27 29 30 31 31 32 33 33 32 32 32 31 30 31 32 32 31
34 42 48 49 50 52 55 54 52 54 59 62 63 62 60 58 56 55 55 54 53 53 53 52 52 49 43 37 31 26 24 22 21 20 19 19 21 21 18 16 15 16 16 17 18 17 14 12 13 14 14 14 14 14 12 11 10 11 12 13 14 15 16 18 19 21 23 25 27 29 31 32 32 32 33 34 35 37 35 34 35 34 33 33 33 32
27 34 42 48 50 50 50 51 52 54 57 61 63 62 59 58 57 56 56 54 53 54 54 54 53 50 45 38 33 29 26 24 25 25 22 20 21 20 17 15 16 16 17 19 19 17 14 14 15 15 14 13 12 11 10 9 9 11 12 14 15 16 17 19 21 22 24 26 28 30 32 33 33 33 34 34 37 40 38 37 37 37 36 36 33 32
26 30 37 43 48 49 47 48 52 55 57 61 63 61 60 58 56 56 55 53 54 56 54 54 55 52 46 40 36 31 28 26 27 27 23 20 19 18 17 18 18 17 18 20 20 18 16 15 15 14 12 10 8 7 7 9 11 12 14 16 17 18 19 21 23 24 26 27 29 31 33 34 33 35 36 36 39 41 39 38 38 37 37 37 35 34
31 33 34 38 44 48 49 49 53 57 59 60 60 59 60 58 56 56 55 52 55 57 54 54 55 50 44 41 37 31 30 29 28 27 26 22 19 19 20 20 18 17 19 21 21 19 17 15 14 12 8 6 5 6 7 10 12 14 16 18 19 20 22 24 26 28 30 31 33 34 35 35 35 36 37 39 40 40 38 38 38 36 36 35 34 34
32 32 31 34 41 49 52 53 54 56 58 58 58 59 59 58 57 57 56 55 56 56 54 54 53 48 42 40 37 33 32 31 27 26 26 22 20 20 20 18 17 17 18 20 20 19 16 14 13 11 9 7 6 8 9 11 13 16 18 20 21 23 24 26 29 30 32 34 35 36 37 38 38 38 39 42 42 40 40 39 38 37 36 34 33 33
32 32 30 29 35 43 49 50 50 51 54 56 56 56 57 57 57 57 59 59 57 55 54 51 47 45 42 39 36 34 32 28 24 23 22 21 20 20 18 17 17 17 18 20 19 17 15 13 12 11 11 11 10 11 11 13 15 16 18 21 23 24 26 27 29 30 33 35 36 36 39 40 41 41 43 44 43 43 43 41 40 39 37 35 34 34
34 34 31 28 29 34 40 43 45 48 51 53 52 53 54 56 57 58 60 58 55 55 53 46 42 42 40 36 33 32 31 27 23 20 20 21 21 20 20 20 19 19 19 19 19 17 15 15 14 12 12 13 12 12 12 13 15 17 19 21 23 24 26 27 29 32 34 36 37 39 40 40 40 40 41 42 44 45 45 44 44 43 38 36 36 36
35 34 31 28 27 29 33 38 43 46 49 52 52 52 54 56 58 58 57 54 54 55 50 41 39 40 34 28 27 29 29 26 21 19 19 20 22 22 22 21 19 19 19 18 18 18 16 16 16 15 14 13 13 13 14 15 18 20 20 21 23 25 27 28 31 33 35 37 39 41 41 40 39 37 37 39 43 45 44 42 41 38 35 35 36 36
37 34 31 29 28 28 30 34 40 45 49 52 54 54 54 56 58 58 55 52 52 53 48 41 40 37 30 25 25 27 29 27 22 21 21 21 23 24 23 21 19 18 18 18 19 19 18 18 18 18 18 18 17 16 16 18 19 21 21 21 23 25 27 30 33 34 37 39 41 43 43 43 42 41 39 40 41 40 40 39 37 35 34 35 36 36
39 36 33 32 31 31 31 31 37 44 48 52 55 55 55 55 56 55 54 51 49 48 45 42 41 37 29 25 26 27 29 29 26 25 24 23 25 25 24 23 23 22 20 20 20 21 20 19 20 21 22 22 22 21 20 20 21 22 22 23 25 26 27 30 33 36 38 40 42 44 44 44 46 46 45 42 37 35 36 36 35 33 35 37 37 35
41 39 37 37 37 36 34 32 35 40 45 52 57 58 56 55 53 51 51 50 49 47 45 44 43 38 31 28 28 28 29 30 30 29 28 26 27 27 26 25 25 24 22 22 23 23 22 21 22 23 25 26 27 26 24 24 24 24 24 25 26 26 26 30 34 37 39 41 42 43 43 44 46 47 45 40 36 34 33 34 34 33 34 37 37 35
43 43 41 41 42 40 37 34 34 36 42 51 58 59 57 56 53 50 49 48 49 49 48 47 43 37 31 30 30 29 30 31 32 31 31 30 30 30 29 28 26 24 23 24 25 24 23 23 23 25 27 29 31 30 28 28 28 28 27 27 27 27 29 32 36 38 39 40 40 41 42 44 47 47 41 37 37 36 32 31 33 33 34 36 36 32
43 45 43 42 45 42 37 35 35 37 43 50 55 57 58 56 53 51 49 48 47 48 48 45 41 37 34 34 33 31 31 31 31 31 32 33 33 33 32 31 29 27 26 27 27 26 25 25 26 28 30 32 34 35 33 32 32 32 31 31 31 32 33 35 38 39 39 39 39 41 43 45 49 48 40 35 37 37 34 33 34 34 35 34 29 25
43 44 43 42 44 43 38 36 38 40 42 47 53 56 57 54 51 49 49 47 46 46 45 42 40 38 37 36 35 34 32 31 30 31 33 34 34 34 34 32 30 30 30 30 29 28 27 29 31 33 35 37 38 38 36 36 36 36 35 36 36 36 37 38 40 40 41 41 41 43 45 47 50 48 40 38 38 38 39 39 34 31 30 27 23 23
43 41 41 40 42 42 39 37 39 39 39 45 53 55 55 52 49 47 46 46 45 44 42 40 38 36 35 35 35 35 33 32 31 31 33 35 36 36 35 33 32 32 31 30 30 31 32 34 36 38 38 38 38 38 38 39 40 39 39 39 39 39 40 42 42 42 43 44 44 46 48 50 50 46 40 40 39 39 40 38 31 27 26 25 25 29
42 38 39 39 41 41 40 39 38 36 36 44 52 55 53 50 47 45 44 44 44 42 39 38 37 36 35 35 35 35 35 34 34 35 36 37 38 38 37 35 34 33 32 32 33 34 35 36 38 39 39 39 39 40 41 42 42 42 42 41 41 42 44 45 45 45 46 46 46 47 50 51 50 46 41 41 43 45 42 35 30 30 31 30 30 33
42 38 38 40 41 42 41 39 38 36 35 41 49 53 53 49 45 44 42 42 43 42 39 38 38 37 37 37 37 37 38 37 35 36 38 40 40 40 39 36 33 32 33 34 34 34 36 38 39 40 41 42 43 44 43 43 42 43 44 44 45 46 47 48 49 49 49 48 47 48 50 52 50 47 44 41 43 45 40 33 30 30 29 29 31 33
45 41 40 41 42 42 41 41 39 36 34 36 42 48 51 48 46 45 43 41 41 41 40 40 40 39 39 40 39 39 40 39 36 35 36 38 38 38 38 36 34 33 33 33 34 36 37 38 40 41 43 44 45 45 44 43 43 45 46 48 49 49 50 52 52 51 51 50 48 48 51 51 49 47 44 39 39 39 36 34 33 30 24 24 27 30
46 42 41 42 43 42 41 41 40 36 33 33 36 41 45 47 48 46 44 41 41 41 42 43 44 44 44 44 43 41 42 41 38 36 36 34 34 35 35 35 34 33 33 34 37 39 39 40 42 43 44 44 45 45 44 44 45 48 50 51 51 51 53 53 52 52 53 51 48 48 50 50 48 46 41 38 37 35 34 37 37 29 21 19 22 26
44 41 40 43 43 41 39 40 40 37 33 33 34 36 40 45 48 47 44 41 40 41 42 43 44 45 47 49 46 43 43 42 39 38 37 34 32 32 33 34 35 36 38 40 42 42 43 44 45 44 43 44 45 46 47 48 49 51 52 52 52 53 53 52 52 53 53 49 47 48 50 49 48 45 41 39 36 32 33 38 35 25 17 18 22 26
42 41 41 42 40 36 36 38 39 37 34 33 33 35 38 42 44 44 43 42 42 43 43 43 43 44 46 48 49 47 46 44 40 38 36 33 31 32 34 36 39 40 42 42 43 45 46 47 47 44 44 45 47 49 51 52 53 53 53 54 54 54 53 51 52 51 49 48 48 48 48 48 47 45 43 40 37 32 31 33 30 24 20 22 25 28
44 41 42 41 35 30 30 35 38 38 37 36 35 37 40 40 40 40 40 40 42 44 44 43 42 43 43 44 48 51 50 46 42 40 39 40 40 40 40 40 40 41 41 42 44 46 46 47 47 47 47 49 50 52 52 53 55 55 54 54 54 53 51 49 49 48 47 47 48 47 46 46 46 45 43 41 39 34 29 31 34 31 28 28 30 30
48 45 44 40 33 28 29 34 38 39 39 39 38 39 42 42 41 40 38 36 38 39 40 39 37 35 35 35 38 44 46 44 43 43 42 42 43 43 43 43 44 45 46 46 47 47 46 47 48 49 50 51 51 52 54 56 58 57 55 53 52 51 48 47 46 46 46 46 46 45 45 45 45 44 43 41 40 35 31 34 38 35 32 33 34 34
49 48 46 43 36 32 32 35 38 40 41 42 43 43 43 44 44 43 40 38 37 36 34 35 34 32 30 30 32 36 39 40 39 38 36 36 37 39 41 44 46 48 49 49 49 48 48 49 51 53 53 52 52 53 55 57 58 56 53 50 48 47 45 44 44 44 44 44 44 44 44 44 43 42 41 40 39 35 32 33 35 34 35 37 37 38
44 47 48 46 40 36 36 37 39 41 41 43 46 47 46 44 42 41 41 40 38 37 35 33 33 32 31 31 32 32 33 33 33 32 32 33 34 37 39 42 45 47 49 50 49 50 51 54 55 55 54 54 57 58 57 56 54 50 46 44 42 41 41 41 42 42 42 42 42 42 42 42 41 41 40 39 37 33 31 33 36 38 40 39 39 40
40 45 50 49 42 36 36 38 41 44 44 43 44 47 48 46 42 40 40 41 40 40 39 38 36 34 34 33 33 33 33 34 34 33 32 33 35 38 41 43 46 48 49 49 50 52 56 57 54 52 54 57 59 58 54 50 46 43 42 41 40 39 39 40 41 41 41 41 41 41 40 40 40 40 40 38 35 32 32 34 35 37 38 39 41 42
40 44 50 51 44 39 37 37 39 45 47 44 41 41 42 42 41 39 39 40 41 41 40 40 40 39 38 37 38 38 37 37 36 35 34 37 40 44 46 49 50 51 51 53 54 55 57 57 54 52 52 51 49 46 43 41 41 42 42 41 40 39 40 40 40 40 40 40 41 40 40 40 40 41 40 37 35 34 34 34 32 33 36 40 43 42
36 40 46 50 47 46 45 40 36 40 44 42 39 40 41 38 38 39 39 40 41 42 41 41 42 43 43 43 44 44 43 42 40 39 40 42 44 47 50 53 55 54 55 56 57 56 57 58 57 55 50 44 40 38 38 38 40 42 41 40 39 39 39 39 39 40 40 41 41 41 40 40 42 43 41 37 35 34 33 31 31 33 38 42 43 41
31 34 41 46 47 46 46 42 37 39 43 40 36 39 42 41 38 39 41 42 42 43 43 43 43 42 43 43 44 44 44 43 40 38 39 40 41 43 44 46 48 49 49 49 48 46 47 48 47 46 44 41 40 39 39 39 39 39 39 38 38 38 38 39 39 40 40 41 41 41 41 42 43 43 41 38 35 33 32 33 35 38 41 42 42 42
30 31 35 39 41 40 40 39 39 40 43 44 41 39 40 41 39 37 39 41 43 45 46 46 44 42 41 41 40 40 40 39 37 36 37 38 39 39 37 35 35 36 36 36 35 34 35 35 37 38 39 39 38 37 36 36 37 37 37 38 38 39 39 40 40 40 41 41 42 42 43 44 44 42 39 35 33 34 37 39 41 42 43 44 44 45
Wind_Direction
222 224 226 228 226 223 222 223 223 220 218 211 204 197 173 152 143 137 137 141 134 129 143 140 119 113 107 94 87 75 31 251 221 187 183 163 169 169 134 117 105 86 38 19 11 357 336 286 260 245 237 232 234 236 227 219 213 207 209 212 215 222 232 241 245 248 252 263 297 322 338 340 340 334 324 313 304 301 301 303 303 303 307 309 310 310
222 224 227 227 222 220 220 220 222 220 217 213 204 196 180 160 148 142 147 159 166 156 157 163 150 131 122 110 93 61 25 339 246 190 218 226 212 202 143 114 111 124 144 355 342 343 342 319 293 276 260 249 244 244 240 231 224 218 217 222 227 232 235 235 231 230 232 233 240 258 284 304 307 305 303 299 297 299 301 302 303 303 303 303 304 305
222 223 222 221 215 215 217 218 221 219 218 215 202 195 186 166 155 156 162 169 175 173 170 178 179 160 137 124 100 52 11 0 12 0 231 228 228 230 240 230 229 237 220 225 243 271 303 309 298 291 282 268 256 251 244 234 228 224 223 226 231 235 237 235 229 227 231 233 238 249 261 272 278 283 288 292 294 296 298 299 300 300 300 301 302 302
227 220 215 215 213 214 217 218 219 218 220 219 204 195 190 175 164 161 163 167 172 179 182 185 189 177 149 131 104 44 354 347 354 342 285 233 236 241 244 239 244 263 249 237 233 233 239 252 265 274 282 281 271 264 255 242 233 229 227 229 233 236 239 239 236 235 235 236 242 252 261 268 273 277 282 287 292 294 296 297 298 298 298 298 300 299
229 218 212 212 212 215 219 218 218 218 221 221 207 199 197 181 162 158 166 177 183 193 194 192 192 181 162 150 133 38 329 337 346 335 298 255 248 254 251 245 242 247 245 241 242 235 228 228 231 235 248 267 273 273 267 255 245 240 236 235 236 239 243 245 244 243 242 243 250 257 264 270 274 277 281 285 289 291 293 295 295 296 296 296 296 297
225 215 212 212 213 217 220 219 218 218 221 221 209 205 204 185 168 171 180 190 197 198 196 203 199 185 184 178 157 179 294 317 339 333 300 267 256 259 261 256 247 240 240 240 244 243 234 228 227 229 231 239 255 267 271 267 261 257 251 247 246 247 249 251 250 251 252 254 258 263 268 272 276 280 283 286 289 290 292 293 294 294 294 295 296 298
223 214 212 212 213 217 220 219 218 218 220 219 209 208 208 196 188 190 193 200 207 200 197 218 216 203 206 191 173 214 248 288 340 325 279 258 256 260 263 267 260 251 243 236 240 246 246 241 235 234 233 233 240 250 260 265 266 264 263 259 258 258 258 258 258 260 262 264 268 271 274 276 279 282 285 288 289 290 292 293 293 294 294 295 296 298
223 216 214 213 215 218 220 220 219 219 221 217 206 205 207 204 205 211 214 218 222 217 214 221 223 222 214 192 190 213 207 232 324 303 262 241 267 281 277 278 272 263 249 239 240 246 252 251 245 242 241 241 244 246 249 254 258 262 266 266 265 265 265 264 265 267 269 272 275 276 278 280 281 283 285 287 289 291 292 293 292 292 292 293 292 292
224 220 218 217 218 220 221 221 220 222 223 214 203 205 207 209 216 225 231 233 235 235 230 223 227 235 218 193 204 214 198 217 292 282 259 241 280 293 295 292 280 267 256 245 241 243 249 251 248 245 245 251 253 251 251 252 255 259 262 264 266 268 269 270 272 274 276 277 278 279 280 281 282 284 287 288 290 292 295 295 294 291 290 290 291 290
225 221 219 218 220 224 223 221 222 224 223 212 205 207 209 212 219 227 233 236 239 238 236 229 229 240 222 196 207 217 190 164 171 225 239 264 296 299 295 293 290 272 256 247 245 245 247 248 248 245 247 256 257 255 256 256 257 259 261 263 265 268 271 273 276 279 281 282 282 282 282 282 284 286 288 290 291 294 297 297 295 293 291 291 291 291
223 220 219 218 219 222 220 220 222 224 222 213 209 210 211 215 220 227 233 236 238 238 238 233 230 243 231 204 206 206 170 157 182 212 209 250 319 311 295 290 286 268 254 252 254 256 256 252 249 249 251 254 253 255 256 256 257 260 262 265 267 270 272 274 277 279 282 283 284 284 284 285 286 288 289 291 292 293 295 295 294 294 293 293 293 293
221 219 220 219 217 217 216 217 220 222 221 215 212 211 214 218 221 226 231 232 235 238 241 240 240 249 236 199 197 197 173 177 199 206 206 250 308 296 289 286 268 260 274 278 274 277 274 261 250 248 251 251 250 253 256 258 261 262 264 267 269 272 273 274 276 279 282 283 284 284 285 286 288 290 291 291 291 292 292 293 293 293 294 295 296 296
221 219 220 219 217 215 214 216 218 219 219 216 213 211 213 219 222 225 227 229 234 238 242 243 247 250 233 184 196 208 200 203 202 206 222 267 281 255 279 283 261 261 281 286 285 289 283 267 254 250 252 252 251 254 259 263 266 268 269 270 271 272 272 275 277 280 283 285 286 287 288 290 291 292 292 290 289 289 290 291 292 293 294 295 296 296
222 221 220 220 219 216 215 216 218 219 219 217 213 211 214 218 222 225 226 228 233 238 241 242 246 248 233 174 200 219 220 222 209 209 227 257 249 218 251 270 269 272 278 279 283 288 285 274 265 259 258 257 257 260 264 267 270 271 272 273 273 272 271 273 277 282 286 288 288 289 291 292 293 292 291 289 289 289 291 292 293 294 295 295 295 296
224 222 220 220 221 219 217 218 220 220 221 220 217 214 217 221 223 227 230 233 235 238 241 241 245 249 241 198 223 237 232 228 222 223 227 241 245 229 240 261 280 284 278 277 277 281 283 278 273 269 267 265 264 265 266 268 270 271 273 274 272 269 268 272 279 284 287 289 290 291 291 291 291 291 289 288 289 291 293 294 294 295 295 296 296 296
224 223 221 222 223 221 220 220 221 221 220 220 219 218 220 223 225 230 235 238 238 238 240 241 245 252 252 248 247 242 234 228 228 233 230 240 260 258 249 259 278 280 275 278 277 274 277 280 282 280 277 275 274 273 270 267 267 268 270 272 270 268 270 275 280 282 284 288 292 292 290 289 290 291 291 289 290 292 295 296 296 295 295 296 296 296
223 222 220 223 225 223 221 221 220 221 220 220 220 220 222 223 225 231 238 239 237 237 240 242 245 251 255 254 250 247 244 240 243 246 242 250 268 266 253 257 269 273 271 275 278 281 285 292 298 295 290 287 286 284 278 269 266 267 268 270 271 271 273 275 276 278 283 288 292 292 290 289 291 292 291 289 289 292 294 296 296 297 296 296 295 294
224 223 219 221 225 224 223 222 220 220 221 221 222 223 223 223 225 229 235 237 236 237 241 244 246 250 253 255 254 253 252 251 256 258 253 259 270 264 255 258 265 265 260 263 273 283 291 300 308 308 303 298 293 290 284 272 267 268 268 267 268 269 271 271 273 278 285 288 290 290 290 292 293 292 289 287 287 289 291 293 295 296 296 295 293 292
225 224 219 219 222 223 223 223 220 218 219 221 222 223 223 224 226 228 231 234 235 237 242 245 247 249 251 254 255 254 254 255 258 263 263 270 282 276 257 255 260 258 253 258 272 283 292 303 310 310 306 298 294 291 284 275 269 268 267 266 267 269 271 273 278 284 287 288 289 291 292 293 292 291 289 287 286 287 288 290 293 294 293 292 290 289
225 224 219 218 221 222 222 222 220 215 215 219 220 221 221 223 226 229 231 234 236 238 243 247 249 251 253 255 257 255 258 261 262 270 274 275 284 280 256 250 254 251 250 259 272 282 290 301 307 307 304 297 293 291 288 285 281 276 273 272 272 275 277 280 284 286 287 288 290 292 292 291 290 290 289 288 287 286 285 286 288 289 290 289 287 287
227 226 220 216 219 221 220 221 220 215 214 218 219 220 220 220 223 227 230 232 236 239 243 247 250 253 255 259 260 259 262 264 267 275 273 267 273 271 255 247 245 241 247 257 267 278 288 296 299 302 302 296 292 293 293 293 291 287 284 283 281 281 284 286 286 287 288 291 294 296 295 293 293 292 290 289 289 286 282 281 282 284 285 286 286 288
227 228 222 217 218 220 220 221 220 218 216 218 221 222 221 220 222 225 228 230 233 237 242 246 250 254 257 259 261 262 262 261 265 270 263 256 262 264 259 251 239 236 245 254 264 276 285 287 290 297 299 296 296 300 301 298 297 295 291 288 287 287 288 288 288 290 293 298 302 302 299 299 300 298 295 293 290 287 281 277 278 281 283 284 284 287
227 233 228 220 217 217 219 220 218 218 218 218 220 222 221 221 223 225 228 229 231 235 240 245 248 252 256 256 255 257 259 258 260 259 253 251 254 256 261 260 249 243 248 255 264 275 280 281 288 296 298 299 305 309 309 307 304 302 298 295 293 293 293 292 294 298 301 304 306 305 303 304 302 299 298 294 289 286 282 278 278 281 285 285 284 286
221 233 230 222 218 216 217 218 217 216 216 217 220 221 220 221 223 226 230 232 233 235 238 243 248 251 255 255 252 253 254 255 254 249 246 249 250 250 255 259 257 253 252 257 265 271 273 278 290 299 296 297 309 313 307 306 303 300 298 296 296 296 297 299 302 303 303 303 304 303 301 299 298 297 298 295 289 285 282 279 279 282 286 288 287 287
214 224 226 223 219 216 215 215 214 214 215 216 219 221 220 220 221 224 229 233 235 235 237 242 246 249 252 254 254 252 250 253 254 248 245 246 247 251 256 256 253 250 250 256 262 265 268 274 288 296 289 282 300 310 308 305 302 300 297 294 295 296 297 301 303 302 300 299 299 299 300 301 302 300 296 290 286 283 282 281 280 282 287 288 287 287
212 218 223 225 221 216 214 215 214 214 215 216 216 219 220 219 219 222 224 228 232 235 236 239 242 244 247 251 254 250 247 251 254 248 240 237 241 250 256 254 247 244 249 253 256 262 266 271 282 287 280 279 290 297 302 303 301 299 295 292 291 292 294 297 299 299 299 298 299 302 304 303 300 294 289 286 284 284 285 283 281 283 285 284 285 287
211 214 218 225 225 219 217 218 217 216 217 217 216 218 219 218 218 221 223 226 232 235 237 238 241 244 246 250 252 249 248 252 252 242 233 233 241 247 251 254 246 239 242 247 253 263 269 274 281 280 277 281 287 292 296 299 299 297 293 291 290 290 291 293 296 298 299 300 303 305 304 298 293 292 291 291 290 289 286 283 282 284 282 279 281 287
211 214 213 217 221 219 217 218 219 218 218 219 218 218 218 218 219 221 224 229 233 236 237 239 241 244 246 248 249 250 252 251 248 243 238 238 245 249 255 260 253 243 244 252 259 267 273 281 287 284 276 274 281 290 292 293 298 298 295 292 290 289 288 290 295 300 302 304 305 304 304 304 302 301 297 294 291 288 285 285 285 282 278 275 278 285
213 215 212 212 212 212 213 214 216 218 218 218 217 216 215 216 219 223 227 231 233 236 238 240 241 243 243 243 245 248 249 246 243 245 245 244 249 254 260 264 261 254 256 261 264 268 275 284 290 290 285 279 281 287 286 289 297 299 295 292 289 288 287 288 295 301 304 305 304 305 310 313 310 305 299 293 290 287 284 286 286 279 273 275 280 288
214 213 212 213 211 207 209 210 211 215 218 218 216 214 213 215 219 223 227 230 231 235 238 238 239 238 234 236 243 243 240 238 237 241 245 247 252 257 262 266 266 267 269 266 264 270 277 281 285 289 292 290 287 287 287 290 294 295 293 292 292 290 288 288 293 298 301 303 305 308 311 311 307 302 295 288 285 281 280 285 285 277 272 276 286 294
212 212 213 217 216 209 207 209 210 212 216 218 217 214 214 216 220 223 226 227 227 230 232 235 237 232 225 232 242 239 236 235 237 242 248 251 255 258 262 266 271 276 278 270 267 272 276 278 281 286 291 292 291 292 296 296 296 296 299 303 302 298 295 294 296 298 299 300 303 307 309 307 303 299 293 287 282 277 279 284 284 277 274 278 287 291
211 213 216 222 223 213 205 208 212 211 214 217 216 215 216 218 221 224 225 225 226 229 232 235 234 228 222 230 239 239 240 240 240 244 248 251 255 259 263 270 275 276 274 269 270 272 274 276 281 285 288 291 292 295 297 297 297 299 303 308 307 303 301 303 304 303 302 301 303 306 307 303 301 301 299 293 283 276 279 284 284 281 280 281 285 286
212 215 217 222 223 213 203 207 213 215 219 218 214 213 215 218 221 224 226 226 228 231 233 234 232 227 227 233 239 243 247 248 248 248 248 250 254 258 264 270 271 268 263 263 267 270 272 276 280 283 287 290 293 296 294 292 294 297 299 303 304 303 304 308 311 310 307 305 305 306 304 301 301 303 301 293 284 278 278 283 284 283 282 280 280 281
215 217 219 222 222 213 204 207 215 223 225 219 212 211 214 218 221 225 228 227 228 230 231 231 229 227 228 234 240 246 251 254 255 253 250 252 256 259 262 266 266 264 261 262 265 268 272 276 278 281 286 289 293 295 290 288 293 297 298 300 302 303 305 309 314 315 311 307 304 304 302 301 304 306 300 293 290 283 278 283 285 282 282 281 278 277
215 218 221 224 223 215 207 209 220 227 225 216 212 212 214 217 220 224 227 228 228 229 229 229 228 227 228 233 240 245 250 253 254 253 253 254 256 258 259 262 264 266 265 266 268 269 271 274 277 281 286 289 291 292 289 290 295 298 300 301 302 303 305 309 312 313 311 306 302 302 303 303 307 309 301 293 296 291 285 286 287 283 282 279 275 282
215 218 220 224 225 218 211 213 223 228 221 214 213 213 213 215 218 221 225 228 228 227 227 227 227 228 230 234 238 241 245 248 248 248 249 251 252 255 257 260 264 266 266 264 266 268 271 275 278 281 284 287 288 287 287 291 296 298 299 301 302 304 307 309 309 309 309 305 301 302 303 303 306 308 302 296 300 300 292 284 280 281 279 271 274 288
212 216 217 221 224 220 214 216 225 229 223 216 214 212 212 214 217 220 224 226 226 224 224 225 226 228 231 235 238 240 242 245 245 244 244 246 249 251 255 258 262 262 260 260 264 269 273 276 278 280 282 284 284 284 287 292 296 297 298 299 301 304 306 307 308 309 309 305 300 299 301 302 304 306 304 301 301 301 292 277 272 281 279 271 278 288
206 210 215 217 219 218 217 220 225 229 226 220 216 215 214 216 220 221 221 223 224 222 223 225 226 230 233 235 238 238 239 242 243 242 242 245 247 250 254 257 260 260 260 262 267 269 271 273 275 277 280 282 283 286 289 292 295 297 298 299 301 304 305 306 308 309 308 304 300 298 300 303 304 306 307 305 303 301 290 274 278 290 285 278 283 287
205 206 213 216 216 216 217 221 225 229 229 224 220 219 217 218 222 220 218 224 227 224 225 226 228 231 234 236 238 238 238 240 241 240 240 242 245 249 252 255 258 260 261 262 264 265 267 269 272 273 276 279 282 286 288 290 293 295 296 298 300 302 302 304 305 305 304 302 299 299 300 302 304 306 307 306 306 304 291 281 290 298 291 286 290 290
206 205 210 215 215 215 218 221 223 227 229 226 224 223 221 221 222 219 218 226 232 231 231 229 229 231 234 236 238 239 239 240 242 241 241 241 243 246 250 253 255 257 258 258 259 262 264 267 270 272 275 279 282 284 286 288 291 293 294 296 298 298 299 301 301 300 300 298 296 296 299 301 302 303 304 305 307 303 292 289 294 295 291 298 301 299
204 203 207 212 213 213 218 222 223 225 227 225 225 227 226 225 223 220 221 228 234 236 237 236 236 237 236 236 237 237 238 241 242 242 242 241 241 243 246 249 252 254 256 259 262 265 268 270 270 270 274 279 282 283 285 288 290 292 293 294 294 295 296 297 297 297 296 293 292 294 297 298 300 302 305 308 310 302 290 288 288 285 293 311 312 308
207 202 206 212 210 207 213 221 224 226 227 226 226 229 229 229 228 227 229 234 235 236 239 242 245 246 243 240 237 236 236 237 238 241 242 241 242 244 246 249 254 258 262 266 268 270 273 275 273 271 273 278 282 285 287 289 290 291 291 290 291 292 293 293 294 293 291 289 291 293 295 297 300 303 307 312 313 304 289 282 278 277 293 311 315 311
219 206 206 209 205 198 204 215 221 223 224 225 227 229 231 232 233 232 234 237 237 237 240 244 248 249 248 246 241 236 235 236 240 246 250 250 249 249 250 253 258 263 266 268 268 270 273 276 276 276 276 279 284 287 288 289 289 288 287 287 288 288 288 289 289 288 287 288 290 293 294 297 299 301 305 310 311 303 288 277 275 277 288 304 313 315
230 214 206 204 200 194 197 207 215 220 220 220 223 227 231 235 237 237 238 240 241 242 244 246 248 248 249 249 244 238 239 244 250 256 259 257 254 252 252 255 260 263 264 264 265 268 271 272 274 275 277 279 283 285 287 289 289 287 285 286 286 284 284 284 283 283 285 287 289 291 293 295 297 299 303 307 307 301 289 279 277 279 287 299 309 314
238 225 213 204 199 198 197 200 209 215 217 217 219 221 225 230 236 239 241 242 243 244 246 248 250 251 251 251 248 245 248 252 256 259 260 257 255 254 255 258 260 262 264 265 265 267 269 270 272 274 276 279 282 284 288 290 289 286 286 286 284 281 280 280 280 282 284 286 288 290 291 292 293 297 301 305 305 301 290 279 276 281 290 296 303 309
243 235 222 210 202 200 197 198 204 211 215 218 220 220 221 222 226 232 235 235 236 237 238 240 243 245 245 245 245 246 249 251 253 255 254 253 253 255 257 260 262 264 266 266 267 269 270 271 273 275 277 281 284 284 285 287 285 284 284 282 280 279 278 279 281 283 284 286 287 288 289 291 293 297 301 304 302 295 285 276 275 281 286 290 297 302
244 240 231 221 213 206 201 200 204 210 215 217 218 219 219 216 216 220 224 227 229 232 234 236 237 238 237 237 239 241 242 244 245 247 248 250 254 256 258 260 262 263 264 265 269 273 273 272 273 277 281 284 283 280 279 280 280 280 279 277 277 278 278 280 282 283 285 286 286 287 289 292 295 298 300 300 295 288 282 281 281 280 280 284 292 296
245 243 237 231 227 221 213 207 205 209 214 217 217 216 216 216 216 217 222 226 228 229 232 234 235 235 236 236 239 242 244 246 249 252 256 259 261 262 262 263 263 264 265 268 272 275 274 274 277 282 285 284 279 274 273 274 275 275 275 275 277 278 279 281 283 284 285 286 286 288 290 292 295 297 297 295 291 285 282 283 283 279 278 283 291 292
244 242 239 238 238 235 229 226 219 211 210 213 217 218 219 221 222 223 225 228 230 230 232 235 237 238 240 242 244 247 251 255 259 262 264 266 268 269 270 269 269 270 272 275 277 277 276 277 279 281 281 279 275 272 272 274 274 274 274 275 277 278 279 281 282 284 285 286 287 288 289 291 294 295 295 293 290 286 280 279 281 282 283 287 290 289
241 239 238 240 243 242 239 241 238 225 216 214 217 220 222 222 223 227 230 232 234 237 239 242 243 243 244 245 247 250 253 256 259 261 263 266 269 273 274 274 274 275 276 277 278 278 278 278 278 276 274 273 273 272 273 274 273 274 275 276 277 279 280 281 282 284 284 285 285 286 288 291 292 293 293 292 289 284 281 281 283 285 286 288 289 287
238 238 238 241 243 244 244 247 247 241 233 229 229 230 230 225 221 224 229 233 236 239 241 243 244 245 244 245 248 251 252 253 255 258 262 267 271 273 275 275 276 277 277 277 278 280 280 277 274 272 271 271 271 272 273 273 273 274 276 277 278 279 280 282 283 284 283 284 284 286 288 291 291 291 291 288 283 281 284 286 286 286 287 288 288 288
Height
5878 5879 5880 5883 5886 5888 5890 5892 5894 5895 5898 5900 5902 5904 5903 5902 5902 5905 5907 5910 5911 5913 5914 5915 5915 5915 5915 5915 5916 5917 5917 5918 5918 5918 5918 5918 5918 5918 5917 5917 5916 5917 5917 5918 5918 5919 5919 5919 5920 5919 5920 5920 5920 5920 5920 5921 5921 5921 5921 5921 5922 5922 5922 5922 5922 5922 5922 5922 5922 5922 5922 5922 5922 5921 5921 5921 5921 5920 5920 5919 5919 5918 5918 5917 5916 5915
5874 5876 5879 5883 5887 5889 5890 5891 5892 5894 5896 5898 5900 5902 5902 5901 5901 5903 5905 5908 5910 5912 5914 5914 5915 5915 5915 5915 5915 5916 5916 5917 5917 5917 5917 5917 5917 5917 5916 5916 5916 5916 5917 5917 5917 5918 5918 5919 5919 5919 5920 5920 5920 5920 5920 5920 5920 5920 5921 5921 5921 5922 5922 5922 5922 5922 5922 5922 5922 5922 5922 5922 5922 5922 5922 5921 5921 5920 5920 5919 5919 5918 5917 5916 5916 5915
5872 5875 5880 5884 5886 5887 5888 5889 5890 5892 5894 5896 5898 5900 5901 5900 5900 5901 5903 5906 5909 5911 5912 5913 5914 5914 5914 5914 5914 5915 5915 5915 5915 5915 5916 5916 5916 5916 5916 5915 5916 5916 5916 5917 5917 5918 5918 5918 5919 5919 5919 5920 5920 5920 5920 5920 5920 5920 5920 5921 5921 5921 5921 5922 5922 5922 5922 5922 5922 5922 5922 5922 5922 5922 5921 5921 5920 5920 5919 5919 5918 5917 5916 5916 5915 5914
5871 5875 5880 5882 5883 5883 5884 5886 5888 5890 5892 5894 5896 5898 5899 5898 5899 5901 5903 5906 5907 5909 5910 5911 5912 5912 5913 5913 5913 5914 5914 5914 5914 5914 5914 5915 5915 5915 5915 5915 5915 5916 5916 5917 5917 5917 5918 5918 5918 5919 5919 5920 5920 5920 5920 5920 5920 5920 5920 5920 5920 5921 5921 5922 5922 5922 5922 5922 5922 5922 5922 5922 5922 5921 5921 5920 5919 5919 5918 5918 5917 5916 5915 5915 5914 5913
5871 5875 5878 5878 5879 5881 5882 5884 5885 5887 5890 5892 5894 5897 5898 5898 5899 5901 5903 5904 5906 5907 5908 5909 5910 5911 5911 5911 5912 5913 5913 5913 5913 5912 5912 5913 5914 5914 5914 5915 5915 5916 5916 5916 5916 5917 5917 5917 5918 5918 5918 5919 5919 5920 5920 5920 5920 5920 5920 5920 5920 5921 5921 5921 5922 5922 5922 5921 5922 5921 5921 5921 5921 5921 5920 5919 5919 5918 5917 5916 5916 5915 5914 5913 5912 5912
5870 5873 5874 5875 5877 5878 5879 5881 5883 5886 5888 5890 5892 5896 5898 5898 5898 5899 5900 5901 5902 5904 5906 5907 5908 5909 5909 5909 5910 5911 5912 5912 5912 5911 5911 5911 5912 5912 5913 5914 5914 5915 5915 5915 5916 5916 5916 5916 5916 5916 5917 5918 5918 5919 5919 5919 5920 5920 5920 5920 5920 5921 5921 5921 5921 5921 5921 5921 5921 5921 5920 5920 5920 5919 5919 5918 5917 5916 5915 5915 5914 5913 5912 5911 5910 5909
5867 5870 5871 5872 5874 5875 5876 5878 5881 5884 5886 5888 5891 5895 5896 5896 5897 5897 5898 5898 5899 5902 5904 5905 5905 5906 5906 5907 5908 5909 5910 5911 5911 5910 5910 5910 5910 5911 5911 5912 5913 5913 5914 5914 5915 5915 5915 5915 5915 5915 5916 5916 5917 5917 5918 5918 5918 5919 5919 5919 5920 5920 5920 5921 5920 5920 5920 5920 5920 5920 5919 5919 5918 5918 5917 5916 5915 5915 5914 5913 5912 5911 5910 5909 5908 5907
5865 5867 5867 5868 5870 5871 5873 5875 5879 5881 5884 5887 5891 5894 5894 5894 5895 5895 5896 5897 5898 5901 5901 5900 5902 5902 5904 5906 5906 5906 5907 5909 5909 5909 5909 5909 5909 5910 5910 5911 5911 5912 5912 5913 5913 5914 5914 5914 5914 5914 5914 5915 5915 5916 5916 5916 5917 5917 5917 5918 5918 5919 5919 5919 5919 5919 5918 5918 5918 5918 5918 5917 5916 5916 5915 5914 5913 5912 5912 5911 5910 5909 5908 5908 5907 5906
5863 5864 5865 5866 5867 5867 5871 5875 5879 5880 5883 5887 5891 5892 5893 5893 5893 5894 5894 5895 5896 5897 5895 5897 5899 5899 5901 5904 5904 5905 5906 5907 5908 5908 5908 5908 5908 5909 5909 5910 5910 5910 5910 5911 5911 5911 5912 5912 5912 5912 5912 5913 5913 5914 5914 5914 5915 5915 5915 5915 5916 5916 5917 5917 5917 5917 5916 5916 5916 5916 5915 5915 5914 5913 5913 5912 5911 5910 5909 5908 5907 5907 5906 5906 5905 5904
5859 5861 5862 5864 5864 5866 5871 5876 5877 5878 5882 5887 5889 5889 5891 5891 5891 5891 5891 5893 5893 5891 5892 5895 5897 5896 5898 5901 5902 5903 5904 5905 5906 5907 5908 5908 5908 5908 5908 5909 5909 5909 5909 5909 5909 5909 5909 5910 5910 5910 5911 5911 5911 5911 5912 5912 5913 5913 5913 5913 5914 5914 5914 5914 5914 5914 5914 5914 5913 5913 5913 5912 5912 5911 5910 5909 5908 5907 5906 5905 5904 5904 5903 5903 5902 5902
5852 5856 5857 5858 5861 5866 5871 5874 5874 5876 5881 5885 5885 5886 5888 5888 5888 5888 5888 5890 5888 5886 5889 5894 5896 5894 5894 5896 5899 5901 5902 5903 5905 5906 5907 5907 5907 5907 5907 5908 5908 5908 5908 5908 5907 5907 5907 5907 5908 5909 5909 5909 5909 5909 5910 5910 5911 5911 5911 5911 5912 5912 5912 5912 5912 5912 5911 5911 5911 5910 5909 5909 5908 5908 5907 5906 5905 5904 5903 5902 5901 5901 5900 5900 5899 5899
5845 5849 5850 5853 5858 5863 5866 5869 5871 5874 5878 5881 5881 5883 5884 5884 5885 5885 5884 5885 5883 5883 5888 5893 5894 5892 5891 5894 5897 5899 5901 5901 5902 5904 5905 5906 5906 5906 5906 5906 5907 5907 5907 5906 5906 5906 5905 5905 5906 5906 5906 5907 5907 5907 5908 5908 5908 5909 5909 5909 5910 5910 5910 5909 5909 5909 5909 5908 5908 5907 5906 5905 5905 5904 5904 5903 5902 5901 5900 5900 5899 5898 5898 5897 5896 5896
5839 5843 5846 5849 5854 5858 5861 5864 5866 5869 5872 5875 5876 5878 5879 5879 5880 5880 5880 5881 5879 5882 5888 5891 5891 5889 5888 5892 5896 5897 5899 5899 5900 5902 5903 5905 5905 5905 5905 5905 5905 5905 5905 5905 5905 5904 5904 5904 5904 5904 5905 5905 5905 5905 5906 5906 5906 5907 5907 5908 5908 5908 5907 5907 5907 5907 5906 5906 5905 5904 5903 5902 5902 5901 5900 5900 5899 5898 5898 5897 5897 5896 5895 5894 5894 5893
5835 5839 5842 5846 5849 5853 5856 5859 5861 5863 5867 5869 5871 5874 5874 5875 5876 5875 5877 5877 5878 5882 5886 5888 5887 5884 5886 5892 5894 5895 5897 5898 5898 5899 5901 5903 5903 5904 5904 5903 5904 5904 5904 5904 5903 5903 5903 5903 5903 5903 5903 5903 5903 5904 5904 5904 5904 5905 5905 5905 5906 5905 5905 5905 5905 5904 5904 5903 5902 5901 5900 5900 5899 5899 5898 5897 5896 5896 5896 5895 5895 5894 5893 5892 5891 5891
5830 5833 5838 5842 5844 5849 5853 5855 5858 5862 5865 5868 5870 5872 5871 5871 5872 5873 5875 5877 5879 5882 5884 5884 5882 5879 5885 5891 5892 5893 5895 5895 5896 5897 5898 5900 5900 5901 5901 5901 5902 5902 5902 5902 5902 5901 5901 5902 5902 5902 5901 5901 5902 5902 5902 5902 5902 5902 5902 5903 5903 5902 5903 5903 5903 5902 5901 5900 5900 5899 5898 5898 5897 5897 5896 5895 5894 5894 5894 5893 5893 5892 5891 5890 5889 5888
5823 5828 5836 5840 5841 5846 5850 5853 5857 5859 5862 5865 5867 5868 5866 5867 5871 5873 5875 5876 5878 5879 5879 5879 5877 5877 5883 5888 5889 5891 5892 5892 5894 5894 5895 5897 5898 5898 5898 5898 5900 5900 5900 5900 5900 5900 5900 5900 5900 5900 5899 5899 5899 5899 5900 5899 5899 5899 5899 5899 5899 5900 5900 5900 5900 5899 5899 5898 5897 5897 5896 5896 5895 5895 5894 5893 5892 5892 5891 5891 5890 5889 5889 5888 5887 5886
5819 5825 5834 5836 5837 5842 5846 5849 5853 5855 5857 5860 5861 5861 5862 5867 5871 5872 5872 5873 5875 5874 5873 5874 5874 5876 5880 5882 5885 5888 5889 5890 5892 5892 5893 5894 5895 5895 5896 5897 5898 5898 5898 5898 5898 5898 5898 5899 5898 5898 5897 5897 5897 5897 5897 5897 5896 5896 5896 5896 5897 5897 5897 5898 5897 5897 5896 5896 5895 5895 5894 5894 5893 5893 5892 5891 5890 5889 5889 5888 5887 5887 5886 5886 5885 5883
5816 5822 5829 5831 5833 5838 5841 5845 5849 5852 5854 5855 5856 5859 5862 5865 5867 5868 5868 5868 5869 5869 5868 5870 5873 5874 5876 5879 5883 5885 5886 5888 5889 5890 5891 5892 5892 5893 5894 5895 5896 5896 5896 5896 5896 5896 5896 5896 5896 5895 5895 5894 5894 5894 5894 5894 5893 5893 5893 5894 5894 5894 5895 5895 5894 5894 5894 5894 5893 5893 5892 5892 5891 5891 5890 5889 5888 5886 5885 5885 5884 5884 5883 5882 5881 5880
5812 5816 5822 5826 5828 5832 5837 5840 5842 5845 5848 5850 5853 5857 5859 5860 5861 5863 5863 5863 5864 5865 5865 5867 5869 5871 5872 5876 5880 5883 5884 5886 5887 5888 5889 5889 5890 5891 5892 5893 5894 5894 5894 5894 5894 5894 5894 5894 5893 5893 5892 5892 5892 5892 5891 5891 5891 5891 5891 5891 5892 5892 5892 5892 5892 5893 5892 5892 5891 5891 5890 5890 5889 5888 5887 5886 5885 5884 5882 5882 5881 5881 5880 5879 5878 5877
5806 5810 5815 5820 5823 5825 5829 5830 5832 5838 5842 5844 5848 5850 5852 5855 5857 5859 5860 5860 5862 5862 5862 5864 5865 5865 5869 5874 5878 5880 5882 5884 5885 5886 5887 5888 5888 5890 5890 5891 5892 5892 5892 5892 5893 5892 5892 5892 5891 5890 5890 5889 5889 5889 5889 5889 5889 5889 5889 5889 5889 5889 5890 5890 5890 5891 5890 5890 5889 5889 5888 5887 5886 5885 5884 5883 5882 5881 5880 5879 5878 5877 5876 5875 5874 5873
5802 5803 5808 5814 5817 5818 5820 5823 5827 5834 5837 5838 5841 5843 5845 5850 5852 5854 5856 5857 5858 5859 5860 5861 5860 5861 5867 5872 5875 5877 5880 5881 5883 5884 5885 5886 5887 5888 5889 5889 5890 5891 5891 5891 5891 5890 5890 5890 5889 5889 5888 5887 5886 5886 5886 5886 5887 5887 5887 5887 5887 5887 5888 5888 5888 5889 5888 5887 5887 5886 5885 5884 5883 5882 5880 5880 5879 5878 5877 5876 5875 5874 5873 5872 5871 5871
5796 5798 5802 5808 5809 5812 5817 5821 5826 5831 5833 5835 5837 5839 5843 5846 5848 5850 5851 5852 5855 5856 5856 5857 5856 5858 5865 5870 5872 5875 5877 5879 5881 5882 5883 5884 5885 5886 5886 5887 5888 5888 5889 5889 5889 5889 5889 5888 5887 5887 5886 5885 5884 5883 5883 5884 5884 5884 5884 5885 5885 5885 5886 5886 5886 5886 5885 5885 5884 5882 5881 5880 5879 5878 5877 5876 5875 5874 5873 5872 5871 5870 5869 5869 5868 5868
5793 5794 5796 5801 5804 5809 5815 5818 5821 5824 5828 5831 5833 5836 5840 5843 5844 5845 5845 5849 5852 5853 5853 5854 5854 5856 5861 5867 5870 5872 5874 5877 5879 5880 5881 5882 5883 5883 5884 5884 5885 5886 5886 5886 5886 5887 5886 5886 5885 5884 5884 5883 5882 5881 5881 5881 5882 5882 5882 5882 5882 5883 5883 5883 5883 5883 5882 5881 5879 5877 5876 5876 5874 5874 5873 5873 5872 5870 5869 5868 5866 5866 5865 5865 5865 5865
5788 5788 5790 5796 5801 5805 5809 5812 5814 5817 5821 5824 5826 5830 5834 5837 5840 5842 5844 5848 5850 5849 5851 5853 5851 5854 5860 5864 5867 5870 5872 5875 5876 5877 5878 5879 5880 5881 5881 5882 5882 5883 5884 5884 5884 5884 5884 5883 5883 5882 5881 5880 5880 5880 5880 5880 5880 5880 5880 5880 5880 5880 5880 5880 5880 5879 5878 5877 5875 5873 5872 5871 5871 5871 5870 5869 5867 5865 5864 5863 5862 5862 5862 5862 5861 5860
5781 5782 5786 5791 5794 5798 5801 5803 5805 5809 5813 5817 5821 5825 5828 5832 5837 5839 5842 5845 5845 5845 5849 5850 5848 5853 5858 5861 5864 5867 5870 5872 5873 5874 5875 5876 5877 5878 5878 5879 5880 5880 5881 5881 5881 5881 5881 5881 5880 5880 5879 5879 5878 5878 5879 5879 5879 5878 5878 5878 5878 5878 5878 5878 5877 5876 5874 5873 5872 5870 5869 5868 5868 5866 5864 5862 5860 5859 5859 5859 5858 5858 5858 5858 5857 5855
5777 5779 5782 5785 5787 5790 5793 5796 5800 5805 5809 5812 5816 5820 5823 5828 5831 5834 5837 5839 5838 5841 5845 5845 5846 5851 5856 5858 5861 5864 5866 5868 5870 5870 5872 5873 5874 5875 5875 5876 5876 5877 5878 5878 5878 5878 5879 5879 5878 5878 5877 5877 5877 5877 5877 5877 5877 5877 5876 5876 5876 5876 5876 5875 5874 5872 5870 5869 5867 5866 5865 5862 5861 5860 5858 5857 5856 5856 5855 5855 5854 5854 5854 5853 5852 5850
5774 5775 5777 5780 5783 5787 5792 5798 5803 5806 5807 5810 5814 5817 5820 5824 5827 5831 5832 5832 5835 5838 5840 5841 5845 5849 5853 5856 5859 5861 5863 5866 5867 5867 5869 5870 5871 5872 5873 5873 5874 5874 5875 5875 5875 5876 5876 5876 5876 5876 5876 5875 5875 5875 5875 5875 5875 5875 5874 5874 5874 5873 5873 5872 5870 5868 5866 5864 5863 5862 5859 5856 5856 5857 5857 5855 5853 5852 5851 5850 5849 5849 5849 5848 5847 5846
5771 5772 5774 5777 5780 5786 5792 5798 5802 5803 5805 5808 5812 5815 5818 5821 5824 5826 5827 5829 5834 5835 5835 5840 5845 5846 5849 5853 5856 5858 5861 5863 5864 5865 5866 5867 5868 5869 5870 5871 5871 5871 5871 5872 5872 5873 5873 5873 5873 5873 5873 5873 5873 5873 5873 5873 5873 5873 5872 5872 5871 5870 5869 5868 5866 5865 5862 5860 5859 5857 5855 5854 5855 5855 5852 5849 5848 5847 5846 5845 5844 5844 5844 5843 5842 5842
5769 5770 5773 5775 5777 5782 5787 5793 5796 5799 5801 5804 5808 5811 5815 5817 5820 5822 5824 5828 5831 5831 5832 5839 5842 5842 5846 5851 5853 5856 5858 5860 5861 5862 5863 5864 5865 5866 5867 5867 5868 5868 5869 5869 5869 5870 5870 5870 5870 5870 5870 5870 5870 5870 5870 5871 5870 5870 5870 5869 5868 5867 5866 5864 5863 5861 5859 5857 5855 5853 5853 5853 5852 5849 5846 5844 5842 5841 5840 5839 5838 5838 5838 5838 5838 5837
5766 5769 5772 5773 5775 5778 5782 5786 5790 5793 5796 5799 5802 5806 5810 5813 5816 5818 5821 5825 5827 5827 5831 5836 5837 5838 5843 5847 5850 5853 5855 5856 5858 5859 5860 5861 5862 5863 5864 5864 5865 5865 5865 5866 5866 5866 5866 5866 5866 5866 5867 5867 5867 5868 5868 5868 5867 5867 5866 5865 5864 5864 5863 5861 5860 5858 5856 5854 5852 5850 5850 5848 5845 5842 5840 5837 5836 5835 5835 5834 5833 5833 5833 5833 5833 5832
5764 5768 5770 5771 5772 5773 5777 5782 5785 5787 5790 5793 5797 5801 5805 5808 5811 5813 5816 5819 5821 5824 5827 5830 5831 5834 5839 5844 5846 5849 5850 5852 5854 5855 5857 5858 5859 5860 5860 5861 5862 5862 5862 5862 5862 5862 5863 5863 5863 5863 5863 5863 5863 5864 5864 5863 5863 5863 5862 5861 5861 5860 5859 5858 5856 5855 5853 5852 5850 5848 5846 5843 5839 5835 5833 5832 5831 5830 5830 5829 5828 5829 5829 5828 5828 5828
5762 5764 5766 5767 5767 5768 5773 5777 5780 5783 5786 5786 5789 5795 5799 5802 5805 5809 5812 5815 5817 5820 5823 5824 5825 5830 5836 5840 5842 5844 5846 5848 5850 5852 5853 5855 5856 5856 5857 5858 5859 5859 5858 5858 5858 5859 5859 5859 5859 5859 5859 5859 5859 5859 5859 5859 5859 5859 5858 5857 5857 5856 5855 5854 5852 5851 5849 5847 5845 5843 5841 5837 5833 5830 5829 5830 5829 5827 5826 5826 5825 5825 5825 5824 5823 5823
5759 5759 5760 5761 5761 5764 5770 5773 5776 5780 5778 5777 5782 5789 5794 5797 5801 5805 5808 5811 5814 5816 5817 5819 5822 5828 5834 5836 5837 5840 5842 5844 5846 5848 5850 5851 5852 5853 5854 5855 5855 5855 5855 5855 5855 5855 5856 5856 5856 5855 5855 5855 5855 5855 5855 5855 5855 5855 5854 5853 5853 5852 5851 5849 5847 5845 5844 5842 5840 5838 5835 5832 5828 5827 5827 5827 5825 5823 5822 5822 5822 5821 5820 5819 5819 5819
5754 5755 5756 5757 5758 5762 5767 5770 5772 5772 5769 5772 5780 5786 5789 5793 5798 5801 5804 5807 5809 5811 5813 5815 5820 5825 5829 5831 5833 5836 5838 5840 5842 5844 5845 5846 5848 5849 5850 5851 5851 5851 5851 5851 5851 5852 5852 5852 5851 5851 5851 5850 5850 5851 5851 5851 5851 5850 5850 5849 5849 5848 5846 5844 5842 5840 5839 5837 5835 5832 5830 5827 5824 5823 5822 5822 5821 5820 5818 5817 5817 5817 5816 5816 5816 5817
5750 5752 5753 5754 5756 5760 5764 5766 5766 5764 5766 5773 5779 5782 5785 5790 5794 5797 5800 5802 5805 5807 5810 5814 5818 5821 5823 5826 5829 5832 5834 5836 5838 5840 5841 5842 5843 5845 5846 5846 5846 5847 5847 5847 5848 5848 5848 5847 5847 5847 5847 5846 5846 5846 5846 5846 5846 5845 5845 5844 5844 5843 5841 5839 5838 5836 5834 5832 5830 5828 5826 5823 5821 5819 5818 5816 5816 5815 5814 5812 5812 5812 5812 5813 5813 5813
5746 5748 5749 5751 5753 5757 5761 5762 5761 5762 5767 5772 5775 5777 5782 5786 5790 5793 5795 5798 5801 5804 5808 5811 5814 5817 5820 5822 5825 5828 5830 5832 5833 5835 5836 5837 5839 5840 5841 5841 5842 5843 5843 5843 5843 5843 5843 5843 5842 5842 5842 5842 5842 5841 5841 5841 5841 5841 5840 5839 5838 5837 5836 5834 5833 5831 5829 5827 5826 5824 5821 5819 5817 5816 5814 5812 5811 5811 5809 5807 5806 5807 5808 5809 5808 5808
5741 5743 5745 5747 5750 5754 5757 5758 5759 5762 5765 5768 5770 5774 5779 5782 5786 5789 5792 5795 5798 5802 5805 5808 5811 5813 5815 5818 5821 5823 5825 5827 5828 5830 5831 5832 5834 5835 5836 5837 5838 5838 5838 5838 5838 5838 5838 5838 5837 5837 5837 5837 5836 5836 5836 5836 5836 5836 5835 5834 5833 5832 5830 5829 5828 5826 5825 5823 5821 5819 5816 5814 5812 5812 5811 5810 5807 5805 5804 5803 5803 5804 5804 5804 5803 5803
5737 5739 5741 5743 5746 5750 5753 5755 5757 5760 5762 5765 5768 5772 5776 5780 5782 5785 5789 5791 5794 5797 5801 5803 5806 5808 5811 5814 5816 5818 5820 5822 5823 5825 5826 5828 5829 5830 5831 5832 5833 5833 5833 5832 5833 5833 5832 5832 5832 5832 5831 5831 5831 5830 5831 5831 5830 5830 5829 5828 5827 5826 5824 5823 5822 5821 5820 5817 5815 5813 5811 5809 5808 5808 5807 5806 5803 5800 5799 5800 5800 5799 5798 5798 5797 5796
5732 5734 5737 5739 5742 5746 5749 5751 5754 5757 5760 5764 5767 5769 5774 5777 5778 5781 5787 5788 5789 5793 5796 5799 5801 5804 5807 5809 5811 5814 5815 5817 5819 5821 5822 5823 5824 5825 5826 5827 5827 5828 5827 5827 5827 5827 5827 5827 5827 5826 5826 5826 5825 5825 5826 5825 5825 5824 5823 5822 5821 5820 5819 5818 5818 5816 5814 5812 5811 5808 5806 5805 5804 5803 5801 5801 5799 5797 5796 5797 5796 5794 5793 5792 5791 5791
5728 5730 5733 5736 5739 5742 5745 5748 5751 5755 5758 5762 5764 5767 5771 5773 5774 5779 5784 5784 5787 5791 5793 5795 5798 5800 5802 5805 5807 5809 5811 5813 5815 5816 5818 5819 5819 5820 5821 5821 5822 5822 5822 5821 5821 5821 5821 5822 5821 5820 5820 5820 5820 5821 5821 5821 5820 5819 5818 5817 5816 5815 5815 5814 5813 5811 5809 5807 5806 5804 5801 5800 5799 5798 5797 5797 5796 5794 5792 5792 5792 5790 5789 5788 5788 5787
5725 5727 5729 5732 5735 5739 5742 5745 5749 5753 5755 5759 5762 5764 5766 5769 5772 5777 5780 5782 5785 5788 5790 5792 5795 5797 5799 5801 5803 5805 5807 5808 5811 5812 5813 5814 5814 5815 5815 5816 5816 5816 5816 5816 5816 5816 5816 5816 5815 5815 5815 5815 5815 5815 5815 5815 5814 5813 5812 5811 5811 5810 5810 5809 5807 5805 5803 5802 5801 5799 5797 5796 5794 5793 5793 5792 5791 5789 5788 5788 5788 5786 5785 5784 5784 5783
5723 5724 5726 5729 5733 5735 5739 5742 5746 5750 5752 5755 5758 5760 5762 5765 5769 5774 5778 5780 5782 5784 5786 5789 5792 5794 5796 5798 5799 5801 5802 5803 5805 5807 5808 5809 5809 5810 5810 5811 5811 5812 5812 5812 5812 5812 5812 5811 5810 5810 5810 5810 5810 5810 5810 5810 5809 5808 5807 5806 5805 5805 5804 5803 5802 5800 5798 5797 5796 5794 5793 5792 5790 5789 5787 5786 5785 5784 5783 5784 5784 5783 5781 5780 5779 5779
5720 5722 5723 5727 5731 5732 5735 5739 5743 5745 5748 5751 5754 5756 5759 5762 5766 5771 5774 5776 5777 5779 5782 5785 5787 5789 5791 5793 5794 5796 5797 5799 5801 5803 5803 5804 5805 5806 5806 5807 5808 5809 5809 5808 5807 5807 5807 5806 5804 5804 5805 5804 5805 5804 5804 5804 5803 5802 5801 5800 5800 5799 5798 5798 5796 5795 5793 5792 5791 5790 5789 5788 5786 5785 5783 5782 5780 5779 5779 5779 5779 5778 5777 5776 5775 5774
5716 5719 5721 5725 5728 5729 5730 5734 5738 5741 5744 5747 5750 5752 5755 5758 5762 5766 5769 5771 5773 5775 5778 5780 5782 5784 5786 5787 5789 5791 5794 5796 5798 5799 5799 5800 5800 5801 5801 5802 5803 5803 5803 5803 5802 5801 5801 5800 5799 5799 5800 5800 5799 5799 5798 5798 5797 5796 5794 5794 5794 5793 5792 5792 5791 5789 5788 5787 5786 5785 5785 5784 5783 5781 5779 5778 5777 5775 5774 5774 5774 5773 5773 5772 5771 5769
5711 5717 5720 5721 5723 5725 5726 5729 5733 5737 5739 5742 5744 5747 5750 5753 5757 5761 5764 5766 5768 5770 5773 5775 5777 5778 5781 5783 5784 5787 5790 5791 5792 5793 5793 5794 5795 5796 5796 5797 5798 5798 5797 5797 5797 5796 5796 5795 5794 5794 5794 5794 5794 5793 5792 5792 5791 5789 5788 5788 5787 5787 5787 5786 5785 5784 5783 5782 5782 5781 5780 5780 5779 5778 5776 5775 5773 5772 5771 5770 5769 5769 5768 5767 5766 5765
5706 5712 5715 5716 5717 5720 5723 5725 5729 5732 5735 5737 5739 5742 5745 5748 5751 5755 5758 5760 5762 5765 5767 5769 5771 5773 5775 5777 5780 5782 5784 5785 5786 5786 5788 5789 5790 5791 5792 5793 5793 5793 5792 5792 5791 5791 5790 5789 5789 5789 5789 5789 5788 5787 5786 5786 5785 5783 5782 5782 5782 5781 5781 5781 5780 5779 5778 5778 5777 5777 5776 5775 5775 5773 5772 5770 5769 5767 5766 5766 5765 5764 5763 5763 5762 5761
5701 5705 5708 5711 5713 5716 5719 5722 5726 5729 5731 5734 5736 5738 5741 5743 5746 5749 5752 5755 5758 5760 5763 5765 5767 5769 5771 5773 5775 5776 5778 5779 5780 5781 5782 5784 5786 5787 5787 5788 5787 5787 5786 5786 5786 5785 5784 5784 5784 5784 5784 5782 5780 5780 5780 5780 5779 5778 5778 5777 5777 5777 5776 5776 5775 5774 5774 5773 5773 5773 5772 5771 5769 5768 5768 5766 5764 5763 5762 5761 5761 5759 5759 5759 5758 5756
5696 5700 5704 5708 5712 5713 5714 5717 5721 5725 5728 5731 5733 5735 5737 5740 5742 5745 5748 5751 5754 5756 5759 5761 5763 5765 5767 5768 5770 5771 5773 5774 5775 5776 5778 5780 5781 5782 5783 5782 5781 5781 5780 5780 5780 5780 5779 5778 5778 5779 5778 5776 5774 5774 5774 5773 5773 5773 5773 5772 5772 5772 5771 5771 5770 5769 5769 5768 5768 5768 5767 5766 5765 5764 5763 5762 5760 5758 5757 5756 5756 5755 5754 5754 5753 5751
5693 5696 5699 5703 5708 5710 5711 5713 5717 5721 5724 5727 5730 5732 5734 5737 5739 5742 5745 5747 5749 5751 5753 5755 5758 5760 5762 5764 5765 5766 5768 5769 5770 5772 5773 5775 5776 5776 5776 5775 5775 5774 5774 5774 5774 5774 5773 5772 5772 5772 5772 5770 5769 5769 5769 5768 5768 5768 5767 5767 5767 5767 5766 5766 5765 5764 5764 5763 5763 5762 5762 5762 5760 5759 5758 5756 5755 5753 5752 5752 5751 5750 5750 5749 5747 5746
5689 5692 5695 5699 5703 5706 5708 5711 5714 5716 5719 5722 5725 5728 5730 5732 5735 5738 5741 5743 5745 5747 5749 5750 5752 5754 5756 5758 5760 5762 5763 5764 5766 5767 5769 5769 5770 5770 5769 5769 5769 5769 5768 5768 5768 5767 5766 5765 5765 5765 5765 5765 5764 5764 5764 5763 5763 5762 5762 5761 5761 5761 5761 5760 5760 5759 5759 5758 5758 5757 5757 5756 5755 5753 5751 5750 5749 5748 5748 5747 5746 5746 5745 5743 5742 5741
5687 5690 5693 5695 5699 5702 5704 5706 5709 5712 5714 5718 5721 5723 5726 5729 5731 5734 5736 5739 5741 5742 5744 5745 5746 5748 5751 5753 5755 5757 5758 5760 5761 5762 5763 5763 5763 5763 5764 5763 5763 5763 5763 5763 5762 5761 5761 5760 5760 5760 5760 5760 5759 5759 5758 5758 5757 5756 5756 5756 5756 5755 5755 5755 5755 5754 5753 5753 5752 5752 5751 5749 5748 5747 5745 5744 5743 5743 5742 5741 5741 5740 5739 5737 5735 5734